Track STARLINK-4216 now! 10-day predictions STARLINK-4216 is classified as:
1 53022U 22076AN 22230.91667824 -.00081096 00000-0 -57734-3 0 9996 2 53022 53.2174 169.8875 0002213 28.2401 150.2087 15.73262357 7163